Hourly Data Report for September 19, 2021

WINNIPEG THE FORKS
MANITOBA
Current Station Operator: ECCC - MSC

49°53'18.008" N
97°07'46.007" W
230.00 m
5023262
71579
XWN

Download Data

Hourly Data (September 2021)
Hourly Data Report for September 19, 2021
TIME
LST
Temp Definition
°C
Dew Point Definition
°C
Rel Hum Definition
%
Precip. Amount Definition
mm

Wind Dir Definition
10's deg

Wind Spd Definition
km/h
Visibility Definition
km
Stn Press Definition
kPa
Hmdx Definition


Wind Chill Definition


Weather Definition


00:00 18.6 12.0 65 0.0 27 3   97.45     LegendNANA
01:00 18.0 12.0 68 0.0 20 3   97.38     LegendNANA
02:00 17.6 12.5 72 0.0 21 4   97.31     LegendNANA
03:00 17.5 13.3 76 0.0 24 3   97.18     LegendNANA
04:00 18.5 14.7 79 0.0 14 3   97.03     LegendNANA
05:00 19.6 15.7 78 0.0 21 5   96.94     LegendNANA
06:00 19.6 16.2 81 0.0 21 5   96.85     LegendNANA
07:00 21.6 17.0 75 0.0 20 7   96.80 27   LegendNANA
08:00 22.7 16.6 69 0.0 20 10   96.79 28   LegendNANA
09:00 23.4 14.7 58 0.0 21 13   96.76 27   LegendNANA
10:00 25.0 13.0 47 0.0 22 16   96.79 28   LegendNANA
11:00 26.5 12.4 42 0.0 23 13   96.81 29   LegendNANA
12:00 26.9 13.2 43 0.0 23 14   96.93 30   LegendNANA
13:00 27.7 13.3 41 0.0 24 10   96.99 31   LegendNANA
14:00 28.3 8.6 29 0.0 27 9   97.05 29   LegendNANA
15:00 28.3 7.1 26 0.0 31 5   97.10 28   LegendNANA
16:00 28.5 7.0 26 0.0 26 3   97.15 29   LegendNANA
17:00 26.8 7.7 30 0.0 31 5   97.25 27   LegendNANA
18:00 24.6 7.6 34 0.0 33 3   97.30 25   LegendNANA
19:00 23.6 6.9 34 0.0 27 4   97.39     LegendNANA
20:00 21.9 5.0 33 0.0 27 6   97.51     LegendNANA
21:00 19.8 5.9 40 0.0 31 6   97.54     LegendNANA
22:00 18.2 6.9 48 0.0 32 5   97.55     LegendNANA
23:00 17.8 8.9 56 0.0 32 8   97.60     LegendNANA

Notes on Data Quality.

Legend

  • E = Estimated
  • M = Missing
  • NA = Not Available*
  • [empty] = Indicates an unobserved value
Date modified: